Location: Newark
(52.4787°S, 179.0532°W)
Time: 22:33:32
(UTC+00:00)

AO-91 - Visible Passes

Search period start: 12 December 2019 00:00
Search period end: 22 December 2019 00:00
Orbit: 453 x 813 km, 97.7° (Epoch: 12 December)

Date Brightness Start Highest point End Pass type
(mag) Time Alt. Az. Time Alt. Az. Time Alt. Az.
12 Dec ? 09:36:37 10° E 09:38:30 13° ESE 09:40:20 10° SSE visible
12 Dec ? 11:11:49 23° NNE 11:14:27 87° ESE 11:18:23 10° SSW visible
12 Dec ? 12:49:41 10° WNW 12:51:20 12° W 12:52:55 10° WSW visible
13 Dec ? 09:56:46 10° ENE 09:59:40 19° ESE 10:02:24 10° SSE visible
13 Dec ? 11:33:26 24° N 11:35:50 57° W 11:39:40 10° SSW visible
14 Dec ? 10:17:37 11° ENE 10:20:52 27° ESE 10:24:08 10° S visible
14 Dec ? 11:55:03 21° NNW 11:57:14 35° W 12:00:49 10° SSW visible
15 Dec ? 10:39:13 16° NE 10:42:08 42° ESE 10:45:43 10° S visible
15 Dec ? 12:16:39 16° NW 12:18:41 22° W 12:21:45 10° SW visible
16 Dec ? 11:00:50 21° NNE 11:03:25 68° ESE 11:07:09 10° S visible
16 Dec ? 12:38:16 11° WNW 12:40:13 14° W 12:42:15 10° WSW visible
17 Dec ? 09:46:35 10° E 09:48:42 14° ESE 09:50:46 10° SSE visible
17 Dec ? 11:22:26 24° N 11:24:46 73° WNW 11:28:29 10° SSW visible
18 Dec ? 10:06:54 10° ENE 10:09:52 21° ESE 10:12:42 10° SSE visible
18 Dec ? 11:44:02 22° NNW 11:46:09 43° W 11:49:42 10° SSW visible
19 Dec ? 10:28:12 13° NE 10:31:05 32° ESE 10:34:22 10° S visible
19 Dec ? 12:05:38 18° NW 12:07:34 26° W 12:10:43 10° SW visible
20 Dec ? 10:49:48 19° NE 10:52:22 51° ESE 10:55:53 10° S visible
20 Dec ? 12:27:14 12° NW 12:29:03 16° W 12:31:26 10° SW visible
21 Dec ? 09:36:45 10° ESE 09:37:44 11° ESE 09:38:42 10° SE visible
21 Dec ? 11:11:23 23° NNE 11:13:40 87° ESE 11:17:15 10° SSW visible
